Starlink 32437

operational
NORAD ID: 63001 Int'l Des: 2025-031 Owner: SPXS Country: US Constellation: starlink
LEOCIRCULAR

关于 Starlink 32437

正在加载描述...

实时位置

正在加载3D地球...

即将过境

高度历史

Altitude vs Time

uPlot chart will show altitude changes over time

两行轨道根数

1 63001U 25031W 25258.14970255 .00045667 00000-0 16571-2 0 9996
2 63001 43.0042 55.1274 0001609 263.2638 96.8031 15.27612189 34247
Epoch: Sep 15, 2025 • Age: 18 hours

当前状态

高度 483.4 km
速度 7.63 km/s
星下点 25.68°N, 117.02°W
发射日期 Feb 11, 2025
运行时间 0.5 years
类型 internet

技术详情

分类 Payload
质量 730.00 kg
干质量 700.00 kg
总质量 730.00 kg
长度 0.30 m
直径 4.10 m
跨度 29.00 m
形状 Box + pan
制造商 SPXS
平台类型 Starlink V2M
阶段状态 In Orbit
所有者/国家 SPXS/US

大型星座

Loading constellations...